| time (UTC) | temp F | wind direction | speed MPH | gust MPH | rain 1hr in | rain 24hr in | rain mn in | humidity % | barometer mb |
| 20260509234200 | 43 | 277 | 0.0 | 1.0 | 0.01 | 0.05 | 0.05 | 94 | 1013.9 |
| 20260509233702 | 43 | 277 | 0.0 | 1.0 | 0.01 | 0.05 | 0.05 | 93 | 1013.9 |
| 20260509233202 | 43 | 277 | 0.0 | 1.0 | 0.01 | 0.05 | 0.05 | 93 | 1013.9 |
| 20260509233040 | 43 | 277 | 0.0 | 1.0 | 0.01 | 0.05 | 0.05 | 93 | 1014.9 |
| 20260509232702 | 43 | 277 | 0.0 | 1.0 | 0.01 | 0.05 | 0.05 | 93 | 1014.0 |
| 20260509232202 | 43 | 277 | 0.0 | 1.0 | 0.01 | 0.05 | 0.05 | 93 | 1014.1 |
| 20260509231702 | 43 | 277 | 0.0 | 1.0 | 0.01 | 0.05 | 0.05 | 93 | 1014.0 |
| 20260509231631 | 43 | 277 | 0.0 | 1.0 | 0.01 | 0.05 | 0.05 | 93 | 1015.0 |
| 20260509231200 | 43 | 277 | 1.0 | 7.0 | 0.01 | 0.05 | 0.05 | 93 | 1014.0 |
| 20260509230202 | 43 | 277 | 0.0 | 2.0 | 0.01 | 0.05 | 0.05 | 92 | 1014.3 |
| 20260509230030 | 43 | 277 | 0.0 | 2.0 | 0.00 | 0.04 | 0.04 | 92 | 1015.3 |
| 20260509225702 | 43 | 277 | 0.0 | 3.0 | 0.00 | 0.04 | 0.04 | 92 | 1014.2 |
| 20260509225202 | 43 | 277 | 1.0 | 6.0 | 0.00 | 0.04 | 0.04 | 92 | 1014.3 |
| 20260509224630 | 43 | 277 | 0.0 | 6.0 | 0.00 | 0.04 | 0.04 | 92 | 1015.4 |
| 20260509224201 | 44 | 277 | 1.0 | 5.0 | 0.00 | 0.04 | 0.04 | 92 | 1014.3 |
| 20260509223701 | 44 | 277 | 2.0 | 5.0 | 0.00 | 0.04 | 0.04 | 91 | 1014.3 |
| 20260509223035 | 43 | 277 | 1.0 | 7.0 | 0.00 | 0.04 | 0.04 | 92 | 1015.4 |
| 20260509222649 | 44 | 277 | 2.0 | 7.0 | 0.00 | 0.04 | 0.04 | 92 | 1014.3 |
| 20260509222138 | 44 | 277 | 2.0 | 7.0 | 0.00 | 0.04 | 0.04 | 92 | 1014.3 |
| 20260509221632 | 44 | 277 | 2.0 | 8.0 | 0.00 | 0.04 | 0.04 | 91 | 1014.4 |
| 20260509221625 | 43 | 277 | 1.0 | 8.0 | 0.00 | 0.04 | 0.04 | 91 | 1015.4 |
| 20260509221129 | 44 | 277 | 1.0 | 8.0 | 0.00 | 0.04 | 0.04 | 91 | 1014.4 |
| 20260509220630 | 44 | 277 | 1.0 | 6.0 | 0.00 | 0.04 | 0.04 | 91 | 1014.2 |
| 20260509220130 | 44 | 277 | 2.0 | 6.0 | 0.00 | 0.04 | 0.04 | 91 | 1014.1 |
| 20260509220028 | 44 | 277 | 2.0 | 6.0 | 0.00 | 0.04 | 0.04 | 91 | 1015.1 |
| 20260509215630 | 44 | 277 | 1.0 | 6.0 | 0.00 | 0.04 | 0.04 | 91 | 1014.1 |
| 20260509215130 | 44 | 277 | 1.0 | 3.0 | 0.00 | 0.04 | 0.04 | 91 | 1014.1 |
| 20260509214613 | 44 | 277 | 0.0 | 2.0 | 0.01 | 0.04 | 0.04 | 91 | 1015.2 |
| 20260509214129 | 45 | 277 | 0.0 | 2.0 | 0.01 | 0.04 | 0.04 | 90 | 1014.3 |
| 20260509213129 | 45 | 277 | 0.0 | 0.0 | 0.01 | 0.04 | 0.04 | 91 | 1014.4 |
| 20260509213003 | 45 | 277 | 0.0 | 0.0 | 0.01 | 0.04 | 0.04 | 91 | 1015.5 |
| 20260509212629 | 45 | 277 | 0.0 | 1.0 | 0.01 | 0.04 | 0.04 | 90 | 1014.4 |
| 20260509212130 | 45 | 277 | 0.0 | 1.0 | 0.01 | 0.04 | 0.04 | 90 | 1014.2 |
| 20260509211630 | 45 | 277 | 0.0 | 2.0 | 0.01 | 0.04 | 0.04 | 90 | 1014.2 |
| 20260509211604 | 45 | 277 | 0.0 | 2.0 | 0.01 | 0.04 | 0.04 | 90 | 1015.2 |
| 20260509211130 | 45 | 277 | 0.0 | 2.0 | 0.01 | 0.04 | 0.04 | 90 | 1014.2 |
| 20260509210630 | 45 | 277 | 0.0 | 2.0 | 0.02 | 0.04 | 0.04 | 90 | 1014.1 |
| 20260509210130 | 45 | 277 | 1.0 | 4.0 | 0.02 | 0.04 | 0.04 | 90 | 1014.2 |
| 20260509210005 | 45 | 277 | 0.0 | 4.0 | 0.02 | 0.04 | 0.04 | 90 | 1015.3 |
| 20260509205630 | 45 | 277 | 1.0 | 4.0 | 0.02 | 0.04 | 0.04 | 89 | 1014.3 |
| 20260509205131 | 45 | 277 | 0.0 | 3.0 | 0.02 | 0.04 | 0.04 | 90 | 1014.4 |
| 20260509204630 | 45 | 277 | 1.0 | 3.0 | 0.01 | 0.03 | 0.03 | 90 | 1014.5 |
| 20260509204555 | 45 | 277 | 0.0 | 2.0 | 0.01 | 0.03 | 0.03 | 90 | 1015.5 |
| 20260509204130 | 45 | 277 | 1.0 | 3.0 | 0.02 | 0.03 | 0.03 | 90 | 1014.6 |
| 20260509203629 | 45 | 277 | 0.0 | 3.0 | 0.02 | 0.03 | 0.03 | 89 | 1014.7 |
| 20260509202630 | 45 | 277 | 0.0 | 3.0 | 0.03 | 0.03 | 0.03 | 89 | 1014.8 |
| 20260509202130 | 45 | 277 | 1.0 | 5.0 | 0.03 | 0.03 | 0.03 | 90 | 1014.8 |
| 20260509201630 | 45 | 277 | 1.0 | 5.0 | 0.03 | 0.03 | 0.03 | 89 | 1014.9 |
| 20260509201550 | 45 | 277 | 0.0 | 5.0 | 0.03 | 0.03 | 0.03 | 89 | 1015.9 |
| 20260509201130 | 45 | 277 | 1.0 | 4.0 | 0.03 | 0.03 | 0.03 | 88 | 1014.9 |
| 20260509200629 | 45 | 277 | 2.0 | 5.0 | 0.02 | 0.02 | 0.02 | 88 | 1014.9 |
| 20260509195628 | 45 | 277 | 1.0 | 4.0 | 0.02 | 0.02 | 0.02 | 87 | 1015.0 |
| 20260509195129 | 45 | 277 | 1.0 | 5.0 | 0.02 | 0.02 | 0.02 | 87 | 1015.0 |
| 20260509194525 | 45 | 277 | 2.0 | 4.0 | 0.01 | 0.01 | 0.01 | 86 | 1016.0 |
| 20260509194129 | 45 | 277 | 0.0 | 3.0 | 0.01 | 0.01 | 0.01 | 87 | 1015.0 |
| 20260509193121 | 45 | 277 | 0.0 | 3.0 | 0.01 | 0.01 | 0.01 | 86 | 1016.2 |
| 20260509192629 | 45 | 277 | 1.0 | 4.0 | 0.00 | 0.00 | 0.00 | 84 | 1015.2 |
| 20260509191516 | 45 | 277 | 1.0 | 8.0 | 0.00 | 0.00 | 0.00 | 81 | 1016.2 |
| 20260509191131 | 46 | 277 | 2.0 | 8.0 | 0.00 | 0.00 | 0.00 | 79 | 1015.2 |
| 20260509190129 | 47 | 277 | 3.0 | 7.0 | 0.00 | 0.00 | 0.00 | 75 | 1015.1 |
| 20260509190113 | 47 | 277 | 2.0 | 7.0 | 0.00 | 0.00 | 0.00 | 75 | 1016.1 |
| 20260509185629 | 47 | 277 | 2.0 | 11.0 | 0.00 | 0.00 | 0.00 | 73 | 1015.2 |
| 20260509185129 | 48 | 277 | 2.0 | 11.0 | 0.00 | 0.00 | 0.00 | 74 | 1015.0 |
| 20260509184630 | 48 | 277 | 3.0 | 9.0 | 0.00 | 0.00 | 0.00 | 71 | 1015.0 |
| 20260509184520 | 48 | 277 | 2.0 | 9.0 | 0.00 | 0.00 | 0.00 | 71 | 1016.0 |
| 20260509184131 | 49 | 277 | 3.0 | 9.0 | 0.00 | 0.00 | 0.00 | 69 | 1014.9 |
| 20260509183630 | 49 | 277 | 3.0 | 11.0 | 0.00 | 0.00 | 0.00 | 66 | 1015.0 |
| 20260509183133 | 50 | 277 | 2.0 | 11.0 | 0.00 | 0.00 | 0.00 | 62 | 1014.9 |
| 20260509183111 | 50 | 277 | 2.0 | 11.0 | 0.00 | 0.00 | 0.00 | 62 | 1016.0 |
| 20260509182630 | 51 | 277 | 2.0 | 9.0 | 0.00 | 0.00 | 0.00 | 57 | 1014.8 |
| 20260509181629 | 51 | 277 | 3.0 | 9.0 | 0.00 | 0.00 | 0.00 | 55 | 1014.7 |
| 20260509181514 | 51 | 277 | 2.0 | 9.0 | 0.00 | 0.00 | 0.00 | 55 | 1015.8 |
| 20260509181129 | 51 | 277 | 3.0 | 9.0 | 0.00 | 0.00 | 0.00 | 54 | 1014.8 |
| 20260509180628 | 52 | 277 | 2.0 | 6.0 | 0.00 | 0.00 | 0.00 | 52 | 1014.6 |
| 20260509180129 | 52 | 277 | 3.0 | 8.0 | 0.00 | 0.00 | 0.00 | 51 | 1014.6 |
| 20260509180107 | 52 | 277 | 1.0 | 8.0 | 0.00 | 0.00 | 0.00 | 51 | 1015.6 |
| 20260509175630 | 53 | 277 | 2.0 | 8.0 | 0.00 | 0.00 | 0.00 | 50 | 1014.6 |
| 20260509175130 | 53 | 277 | 2.0 | 6.0 | 0.00 | 0.00 | 0.00 | 48 | 1014.4 |
| 20260509174628 | 53 | 277 | 3.0 | 10.0 | 0.00 | 0.00 | 0.00 | 47 | 1014.4 |
| 20260509174506 | 52 | 277 | 1.0 | 10.0 | 0.00 | 0.00 | 0.00 | 47 | 1015.4 |
| 20260509174129 | 53 | 277 | 3.0 | 11.0 | 0.00 | 0.00 | 0.00 | 48 | 1014.5 |
| 20260509173629 | 53 | 277 | 2.0 | 11.0 | 0.00 | 0.00 | 0.00 | 47 | 1014.5 |
| 20260509173130 | 53 | 277 | 3.0 | 9.0 | 0.00 | 0.00 | 0.00 | 46 | 1014.4 |
| 20260509173105 | 53 | 277 | 3.0 | 9.0 | 0.00 | 0.00 | 0.00 | 46 | 1015.5 |
| 20260509172629 | 53 | 277 | 3.0 | 8.0 | 0.00 | 0.00 | 0.00 | 48 | 1014.4 |
| 20260509172129 | 53 | 277 | 3.0 | 12.0 | 0.00 | 0.00 | 0.00 | 47 | 1014.3 |
| 20260509171130 | 54 | 277 | 3.0 | 9.0 | 0.00 | 0.00 | 0.00 | 44 | 1014.3 |
| 20260509170630 | 54 | 277 | 3.0 | 9.0 | 0.00 | 0.00 | 0.00 | 44 | 1014.3 |
| 20260509170105 | 54 | 277 | 1.0 | 7.0 | 0.00 | 0.00 | 0.00 | 44 | 1015.4 |
| 20260509165629 | 55 | 277 | 2.0 | 7.0 | 0.00 | 0.00 | 0.00 | 45 | 1014.2 |
| 20260509164650 | 54 | 277 | 2.0 | 7.0 | 0.00 | 0.00 | 0.00 | 42 | 1015.3 |
| 20260509164630 | 55 | 277 | 3.0 | 7.0 | 0.00 | 0.00 | 0.00 | 42 | 1014.2 |
| 20260509164129 | 55 | 277 | 2.0 | 7.0 | 0.00 | 0.00 | 0.00 | 40 | 1014.3 |
| 20260509163629 | 55 | 277 | 2.0 | 7.0 | 0.00 | 0.00 | 0.00 | 39 | 1014.3 |
| 20260509163129 | 55 | 277 | 2.0 | 7.0 | 0.00 | 0.00 | 0.00 | 39 | 1014.3 |
| 20260509163057 | 54 | 277 | 1.0 | 7.0 | 0.00 | 0.00 | 0.00 | 39 | 1015.4 |
| 20260509162629 | 55 | 277 | 2.0 | 8.0 | 0.00 | 0.00 | 0.00 | 37 | 1014.4 |
| 20260509162128 | 55 | 277 | 2.0 | 8.0 | 0.00 | 0.00 | 0.00 | 37 | 1014.4 |
| 20260509161640 | 55 | 277 | 1.0 | 8.0 | 0.00 | 0.00 | 0.00 | 37 | 1015.6 |
| 20260509161630 | 55 | 277 | 2.0 | 8.0 | 0.00 | 0.00 | 0.00 | 37 | 1014.5 |
| 20260509161129 | 56 | 277 | 2.0 | 8.0 | 0.00 | 0.00 | 0.00 | 39 | 1014.4 |
| 20260509160031 | 55 | 277 | 1.0 | 6.0 | 0.00 | 0.00 | 0.00 | 38 | 1015.5 |
| 20260509155631 | 56 | 277 | 2.0 | 6.0 | 0.00 | 0.00 | 0.00 | 38 | 1014.4 |
| 20260509155129 | 56 | 277 | 2.0 | 7.0 | 0.00 | 0.00 | 0.00 | 38 | 1014.5 |
| 20260509154639 | 55 | 277 | 3.0 | 10.0 | 0.00 | 0.00 | 0.00 | 35 | 1015.6 |
| 20260509154632 | 56 | 277 | 3.0 | 10.0 | 0.00 | 0.00 | 0.00 | 35 | 1014.6 |
| 20260509153629 | 56 | 277 | 2.0 | 9.0 | 0.00 | 0.00 | 0.00 | 37 | 1014.6 |
| 20260509153130 | 56 | 277 | 2.0 | 12.0 | 0.00 | 0.00 | 0.00 | 35 | 1014.6 |
| 20260509153030 | 56 | 277 | 0.0 | 12.0 | 0.00 | 0.00 | 0.00 | 36 | 1015.7 |
| 20260509152129 | 56 | 277 | 2.0 | 8.0 | 0.00 | 0.00 | 0.00 | 33 | 1014.7 |
| 20260509151129 | 56 | 277 | 2.0 | 6.0 | 0.00 | 0.00 | 0.00 | 37 | 1014.8 |
| 20260509150630 | 56 | 277 | 2.0 | 6.0 | 0.00 | 0.00 | 0.00 | 37 | 1014.8 |
| 20260509150129 | 56 | 277 | 3.0 | 9.0 | 0.00 | 0.00 | 0.00 | 36 | 1014.9 |
| 20260509150030 | 55 | 277 | 4.0 | 9.0 | 0.00 | 0.00 | 0.00 | 35 | 1016.0 |
| 20260509145630 | 55 | 277 | 4.0 | 9.0 | 0.00 | 0.00 | 0.00 | 36 | 1014.9 |
| 20260509145125 | 55 | 277 | 4.0 | 10.0 | 0.00 | 0.00 | 0.00 | 37 | 1014.9 |
| 20260509144631 | 55 | 277 | 4.0 | 10.0 | 0.00 | 0.00 | 0.00 | 35 | 1016.1 |
| 20260509144620 | 55 | 277 | 4.0 | 9.0 | 0.00 | 0.00 | 0.00 | 35 | 1015.0 |
| 20260509144114 | 55 | 277 | 3.0 | 9.0 | 0.00 | 0.00 | 0.00 | 35 | 1015.0 |
| 20260509143603 | 56 | 277 | 3.0 | 9.0 | 0.00 | 0.00 | 0.00 | 38 | 1014.9 |
| 20260509143101 | 55 | 277 | 4.0 | 8.0 | 0.00 | 0.00 | 0.00 | 39 | 1014.9 |
| 20260509143036 | 54 | 277 | 2.0 | 8.0 | 0.00 | 0.00 | 0.00 | 40 | 1015.9 |
| 20260509142601 | 55 | 277 | 3.0 | 9.0 | 0.00 | 0.00 | 0.00 | 39 | 1014.9 |
| 20260509142101 | 55 | 277 | 2.0 | 9.0 | 0.00 | 0.00 | 0.00 | 36 | 1014.9 |
| 20260509141632 | 54 | 277 | 1.0 | 6.0 | 0.00 | 0.00 | 0.00 | 41 | 1015.8 |
| 20260509141601 | 55 | 277 | 2.0 | 6.0 | 0.00 | 0.00 | 0.00 | 40 | 1014.7 |
| 20260509141102 | 54 | 277 | 3.0 | 10.0 | 0.00 | 0.00 | 0.00 | 40 | 1014.7 |
| 20260509140601 | 54 | 277 | 4.0 | 11.0 | 0.00 | 0.00 | 0.00 | 37 | 1014.8 |
| 20260509140030 | 53 | 277 | 3.0 | 11.0 | 0.00 | 0.00 | 0.00 | 42 | 1015.9 |
| 20260509135601 | 54 | 277 | 4.0 | 11.0 | 0.00 | 0.00 | 0.00 | 41 | 1014.8 |
| 20260509134633 | 54 | 277 | 2.0 | 6.0 | 0.00 | 0.00 | 0.00 | 46 | 1015.9 |
| 20260509134601 | 54 | 277 | 2.0 | 6.0 | 0.00 | 0.00 | 0.00 | 45 | 1014.9 |
| 20260509134101 | 55 | 277 | 1.0 | 5.0 | 0.00 | 0.00 | 0.00 | 46 | 1015.0 |
| 20260509133601 | 54 | 277 | 2.0 | 7.0 | 0.00 | 0.00 | 0.00 | 45 | 1015.0 |
| 20260509133103 | 54 | 277 | 2.0 | 7.0 | 0.00 | 0.00 | 0.00 | 49 | 1014.9 |
| 20260509133030 | 53 | 277 | 2.0 | 7.0 | 0.00 | 0.00 | 0.00 | 48 | 1016.0 |
| 20260509132601 | 54 | 277 | 1.0 | 4.0 | 0.00 | 0.00 | 0.00 | 49 | 1015.1 |
| 20260509132059 | 53 | 277 | 1.0 | 4.0 | 0.00 | 0.00 | 0.00 | 51 | 1015.1 |
| 20260509131631 | 52 | 277 | 0.0 | 4.0 | 0.00 | 0.00 | 0.00 | 54 | 1016.2 |
| 20260509131550 | 52 | 277 | 1.0 | 4.0 | 0.00 | 0.00 | 0.00 | 53 | 1015.1 |
| 20260509130538 | 50 | 277 | 1.0 | 4.0 | 0.00 | 0.00 | 0.00 | 56 | 1015.2 |
| 20260509130036 | 50 | 277 | 1.0 | 4.0 | 0.00 | 0.00 | 0.00 | 62 | 1015.2 |
| 20260509130031 | 49 | 277 | 1.0 | 4.0 | 0.00 | 0.00 | 0.00 | 62 | 1016.4 |
| 20260509125537 | 49 | 277 | 0.0 | 4.0 | 0.00 | 0.00 | 0.00 | 62 | 1015.3 |
| 20260509124630 | 45 | 277 | 0.0 | 1.0 | 0.00 | 0.00 | 0.00 | 61 | 1016.6 |
| 20260509124537 | 45 | 277 | 0.0 | 1.0 | 0.00 | 0.00 | 0.00 | 63 | 1015.4 |
| 20260509124035 | 45 | 277 | 0.0 | 0.0 | 0.00 | 0.00 | 0.00 | 65 | 1015.4 |
| 20260509123531 | 43 | 277 | 0.0 | 0.0 | 0.00 | 0.00 | 0.00 | 64 | 1015.4 |
| 20260509123030 | 42 | 277 | 0.0 | 0.0 | 0.00 | 0.00 | 0.00 | 68 | 1015.4 |
| 20260509123026 | 42 | 277 | 0.0 | 0.0 | 0.00 | 0.00 | 0.00 | 68 | 1016.6 |
| 20260509122529 | 40 | 277 | 0.0 | 0.0 | 0.00 | 0.00 | 0.00 | 72 | 1015.4 |
| 20260509122030 | 39 | 277 | 0.0 | 0.0 | 0.00 | 0.00 | 0.00 | 73 | 1015.4 |
| 20260509121625 | 37 | 277 | 0.0 | 0.0 | 0.00 | 0.00 | 0.00 | 78 | 1016.6 |
| 20260509121530 | 37 | 277 | 0.0 | 0.0 | 0.00 | 0.00 | 0.00 | 78 | 1015.4 |
| 20260509120529 | 35 | 277 | 0.0 | 0.0 | 0.00 | 0.00 | 0.00 | 84 | 1015.5 |
| 20260509120017 | 33 | 277 | 0.0 | 0.0 | 0.00 | 0.00 | 0.00 | 86 | 1016.6 |
| 20260509115531 | 33 | 277 | 0.0 | 0.0 | 0.00 | 0.00 | 0.00 | 86 | 1015.5 |
| 20260509114029 | 31 | 277 | 0.0 | 0.0 | 0.00 | 0.00 | 0.00 | 88 | 1015.5 |
| 20260509113029 | 30 | 277 | 0.0 | 0.0 | 0.00 | 0.00 | 0.00 | 90 | 1015.6 |
| 20260509113017 | 30 | 277 | 0.0 | 0.0 | 0.00 | 0.00 | 0.00 | 90 | 1016.8 |
| 20260509112528 | 30 | 277 | 0.0 | 0.0 | 0.00 | 0.00 | 0.00 | 90 | 1015.6 |
| 20260509112031 | 30 | 277 | 0.0 | 0.0 | 0.00 | 0.00 | 0.00 | 91 | 1015.6 |
| 20260509111615 | 29 | 277 | 0.0 | 0.0 | 0.00 | 0.00 | 0.00 | 92 | 1016.7 |
| 20260509111529 | 29 | 277 | 0.0 | 0.0 | 0.00 | 0.00 | 0.00 | 92 | 1015.5 |
| 20260509111031 | 29 | 277 | 0.0 | 0.0 | 0.00 | 0.00 | 0.00 | 92 | 1015.4 |
| 20260509110529 | 29 | 277 | 0.0 | 0.0 | 0.00 | 0.00 | 0.00 | 93 | 1015.4 |
| 20260509110031 | 29 | 277 | 0.0 | 0.0 | 0.00 | 0.00 | 0.00 | 93 | 1015.3 |
| 20260509110006 | 29 | 277 | 0.0 | 0.0 | 0.00 | 0.00 | 0.00 | 93 | 1016.5 |
| 20260509104030 | 28 | 277 | 0.0 | 0.0 | 0.00 | 0.00 | 0.00 | 93 | 1015.3 |
| 20260509103003 | 27 | 277 | 0.0 | 0.0 | 0.00 | 0.00 | 0.00 | 94 | 1016.4 |
| 20260509102510 | 27 | 277 | 0.0 | 0.0 | 0.00 | 0.00 | 0.00 | 93 | 1015.2 |
| 20260509102006 | 27 | 277 | 0.0 | 0.0 | 0.00 | 0.00 | 0.00 | 93 | 1015.1 |
| 20260509101004 | 27 | 277 | 0.0 | 0.0 | 0.00 | 0.00 | 0.00 | 93 | 1015.0 |
| 20260509100503 | 27 | 277 | 0.0 | 0.0 | 0.00 | 0.00 | 0.00 | 93 | 1015.0 |
| 20260509100150 | 27 | 277 | 0.0 | 0.0 | 0.00 | 0.00 | 0.00 | 93 | 1016.1 |
| 20260509100004 | 27 | 277 | 0.0 | 0.0 | 0.00 | 0.00 | 0.00 | 93 | 1015.0 |
| 20260509095002 | 27 | 277 | 0.0 | 0.0 | 0.00 | 0.00 | 0.00 | 92 | 1014.8 |
| 20260509094547 | 27 | 277 | 0.0 | 0.0 | 0.00 | 0.00 | 0.00 | 92 | 1015.8 |
| 20260509094503 | 27 | 277 | 0.0 | 0.0 | 0.00 | 0.00 | 0.00 | 92 | 1014.7 |
| 20260509094003 | 27 | 277 | 0.0 | 0.0 | 0.00 | 0.00 | 0.00 | 92 | 1014.6 |
| 20260509093503 | 27 | 277 | 0.0 | 0.0 | 0.00 | 0.00 | 0.00 | 92 | 1014.6 |
| 20260509093132 | 27 | 277 | 0.0 | 0.0 | 0.00 | 0.00 | 0.00 | 92 | 1015.6 |
| 20260509093001 | 27 | 277 | 0.0 | 0.0 | 0.00 | 0.00 | 0.00 | 92 | 1014.5 |
| 20260509092503 | 27 | 277 | 0.0 | 0.0 | 0.00 | 0.00 | 0.00 | 92 | 1014.3 |
| 20260509092001 | 28 | 277 | 0.0 | 0.0 | 0.00 | 0.00 | 0.00 | 92 | 1014.3 |
| 20260509091530 | 27 | 277 | 0.0 | 0.0 | 0.00 | 0.00 | 0.00 | 92 | 1015.4 |
| 20260509091500 | 28 | 277 | 0.0 | 0.0 | 0.00 | 0.00 | 0.00 | 92 | 1014.2 |
| 20260509091001 | 28 | 277 | 0.0 | 0.0 | 0.00 | 0.00 | 0.00 | 92 | 1014.2 |
| 20260509090502 | 28 | 277 | 0.0 | 0.0 | 0.00 | 0.00 | 0.00 | 92 | 1014.0 |
| 20260509085501 | 28 | 277 | 0.0 | 0.0 | 0.00 | 0.00 | 0.00 | 92 | 1014.0 |
| 20260509085000 | 28 | 277 | 0.0 | 0.0 | 0.00 | 0.00 | 0.00 | 91 | 1014.1 |
| 20260509084000 | 28 | 277 | 0.0 | 0.0 | 0.00 | 0.00 | 0.00 | 91 | 1014.1 |
| 20260509083500 | 28 | 277 | 0.0 | 0.0 | 0.00 | 0.00 | 0.00 | 91 | 1014.2 |
| 20260509083130 | 28 | 277 | 0.0 | 0.0 | 0.00 | 0.00 | 0.00 | 91 | 1015.3 |
| 20260509083002 | 28 | 277 | 0.0 | 0.0 | 0.00 | 0.00 | 0.00 | 91 | 1014.2 |
| 20260509082500 | 28 | 277 | 0.0 | 0.0 | 0.00 | 0.00 | 0.00 | 91 | 1014.2 |
| 20260509082000 | 28 | 277 | 0.0 | 0.0 | 0.00 | 0.00 | 0.00 | 91 | 1014.2 |
| 20260509081534 | 28 | 277 | 0.0 | 0.0 | 0.00 | 0.00 | 0.00 | 90 | 1015.4 |
| 20260509081501 | 28 | 277 | 0.0 | 0.0 | 0.00 | 0.00 | 0.00 | 90 | 1014.3 |
| 20260509081001 | 28 | 277 | 0.0 | 0.0 | 0.00 | 0.00 | 0.00 | 90 | 1014.2 |
| 20260509080502 | 28 | 277 | 0.0 | 0.0 | 0.00 | 0.00 | 0.00 | 90 | 1014.3 |
| 20260509075000 | 29 | 277 | 0.0 | 0.0 | 0.00 | 0.00 | 0.00 | 89 | 1014.3 |
| 20260509074001 | 29 | 277 | 0.0 | 0.0 | 0.00 | 0.00 | 0.00 | 90 | 1014.2 |
| 20260509073500 | 28 | 277 | 0.0 | 0.0 | 0.00 | 0.00 | 0.00 | 91 | 1014.2 |
| 20260509073125 | 28 | 277 | 0.0 | 0.0 | 0.00 | 0.00 | 0.00 | 91 | 1015.3 |
| 20260509073002 | 28 | 277 | 0.0 | 0.0 | 0.00 | 0.00 | 0.00 | 90 | 1014.1 |
| 20260509072501 | 28 | 277 | 0.0 | 0.0 | 0.00 | 0.00 | 0.00 | 90 | 1014.1 |
| 20260509072002 | 28 | 277 | 0.0 | 0.0 | 0.00 | 0.00 | 0.00 | 90 | 1014.2 |
| 20260509071522 | 28 | 277 | 0.0 | 0.0 | 0.00 | 0.00 | 0.00 | 90 | 1015.2 |
| 20260509071500 | 28 | 277 | 0.0 | 0.0 | 0.00 | 0.00 | 0.00 | 90 | 1014.1 |
| 20260509071001 | 29 | 277 | 0.0 | 0.0 | 0.00 | 0.00 | 0.00 | 90 | 1014.1 |
| 20260509070502 | 29 | 277 | 0.0 | 0.0 | 0.00 | 0.00 | 0.00 | 90 | 1014.1 |
| 20260509070111 | 28 | 277 | 0.0 | 0.0 | 0.00 | 0.00 | 0.00 | 90 | 1015.1 |
| 20260509070001 | 29 | 277 | 0.0 | 0.0 | 0.00 | 0.00 | 0.00 | 90 | 1014.1 |
| 20260509065501 | 29 | 277 | 0.0 | 0.0 | 0.00 | 0.00 | 0.00 | 90 | 1014.1 |
| 20260509065001 | 29 | 277 | 0.0 | 0.0 | 0.00 | 0.00 | 0.00 | 91 | 1014.0 |
| 20260509064509 | 29 | 277 | 0.0 | 0.0 | 0.00 | 0.00 | 0.00 | 91 | 1015.1 |
| 20260509064501 | 29 | 277 | 0.0 | 0.0 | 0.00 | 0.00 | 0.00 | 90 | 1014.1 |
| 20260509064002 | 29 | 277 | 0.0 | 0.0 | 0.00 | 0.00 | 0.00 | 89 | 1014.0 |
| 20260509063457 | 29 | 277 | 0.0 | 0.0 | 0.00 | 0.00 | 0.00 | 90 | 1013.9 |
| 20260509063122 | 29 | 277 | 0.0 | 0.0 | 0.00 | 0.00 | 0.00 | 90 | 1015.0 |
| 20260509062957 | 30 | 277 | 0.0 | 0.0 | 0.00 | 0.00 | 0.00 | 90 | 1013.9 |
| 20260509062457 | 30 | 277 | 0.0 | 0.0 | 0.00 | 0.00 | 0.00 | 89 | 1013.9 |
| 20260509061959 | 30 | 277 | 0.0 | 0.0 | 0.00 | 0.00 | 0.00 | 89 | 1013.8 |
| 20260509061506 | 29 | 277 | 0.0 | 0.0 | 0.00 | 0.00 | 0.00 | 89 | 1014.8 |
| 20260509061457 | 30 | 277 | 0.0 | 0.0 | 0.00 | 0.00 | 0.00 | 89 | 1013.8 |
| 20260509060957 | 30 | 277 | 0.0 | 0.0 | 0.00 | 0.00 | 0.00 | 89 | 1013.8 |
| 20260509060457 | 30 | 277 | 0.0 | 0.0 | 0.00 | 0.00 | 0.00 | 89 | 1013.7 |
| 20260509060101 | 29 | 277 | 0.0 | 0.0 | 0.00 | 0.00 | 0.00 | 89 | 1014.8 |
| 20260509055958 | 30 | 277 | 0.0 | 0.0 | 0.00 | 0.00 | 0.00 | 89 | 1013.8 |
| 20260509055456 | 30 | 277 | 0.0 | 0.0 | 0.00 | 0.00 | 0.00 | 89 | 1013.8 |
| 20260509054957 | 30 | 277 | 0.0 | 0.0 | 0.00 | 0.00 | 0.00 | 89 | 1013.8 |
| 20260509054508 | 29 | 277 | 0.0 | 0.0 | 0.00 | 0.00 | 0.00 | 89 | 1014.7 |
| 20260509054456 | 30 | 277 | 0.0 | 0.0 | 0.00 | 0.00 | 0.00 | 89 | 1013.7 |
| 20260509052459 | 30 | 277 | 0.0 | 0.0 | 0.00 | 0.00 | 0.00 | 88 | 1013.7 |
| 20260509051958 | 31 | 277 | 0.0 | 0.0 | 0.00 | 0.00 | 0.00 | 87 | 1013.7 |
| 20260509051503 | 31 | 277 | 0.0 | 0.0 | 0.00 | 0.00 | 0.00 | 86 | 1014.7 |
| 20260509051449 | 31 | 277 | 0.0 | 0.0 | 0.00 | 0.00 | 0.00 | 86 | 1013.5 |
| 20260509050948 | 31 | 277 | 0.0 | 0.0 | 0.00 | 0.00 | 0.00 | 86 | 1013.5 |
| 20260509050106 | 31 | 277 | 0.0 | 0.0 | 0.00 | 0.00 | 0.00 | 87 | 1014.8 |
| 20260509045948 | 31 | 277 | 0.0 | 0.0 | 0.00 | 0.00 | 0.00 | 87 | 1013.8 |
| 20260509045448 | 32 | 277 | 0.0 | 0.0 | 0.00 | 0.00 | 0.00 | 86 | 1013.8 |
| 20260509044503 | 32 | 277 | 0.0 | 0.0 | 0.00 | 0.00 | 0.00 | 86 | 1014.9 |
| 20260509044449 | 32 | 277 | 0.0 | 0.0 | 0.00 | 0.00 | 0.00 | 86 | 1013.9 |
| 20260509043949 | 32 | 277 | 0.0 | 0.0 | 0.00 | 0.00 | 0.00 | 84 | 1013.8 |
| 20260509043448 | 33 | 277 | 0.0 | 0.0 | 0.00 | 0.00 | 0.00 | 85 | 1013.9 |
| 20260509043105 | 32 | 277 | 0.0 | 0.0 | 0.00 | 0.00 | 0.00 | 85 | 1014.9 |
| 20260509042945 | 32 | 277 | 0.0 | 0.0 | 0.00 | 0.00 | 0.00 | 85 | 1013.9 |
| 20260509042439 | 32 | 277 | 0.0 | 0.0 | 0.00 | 0.00 | 0.00 | 85 | 1013.9 |
| 20260509041931 | 32 | 277 | 0.0 | 0.0 | 0.00 | 0.00 | 0.00 | 85 | 1013.9 |
| 20260509041653 | 31 | 277 | 0.0 | 0.0 | 0.00 | 0.00 | 0.00 | 85 | 1014.7 |
| 20260509041432 | 32 | 277 | 0.0 | 0.0 | 0.00 | 0.00 | 0.00 | 85 | 1013.8 |
| 20260509040932 | 32 | 277 | 0.0 | 0.0 | 0.00 | 0.00 | 0.00 | 84 | 1013.5 |
| 20260509040432 | 33 | 277 | 0.0 | 0.0 | 0.00 | 0.00 | 0.00 | 83 | 1013.5 |
| 20260509040048 | 32 | 277 | 0.0 | 0.0 | 0.00 | 0.00 | 0.00 | 83 | 1014.5 |
| 20260509035930 | 33 | 277 | 0.0 | 0.0 | 0.00 | 0.00 | 0.00 | 83 | 1013.4 |
| 20260509035430 | 33 | 277 | 0.0 | 0.0 | 0.00 | 0.00 | 0.00 | 85 | 1013.4 |
| 20260509034930 | 33 | 277 | 0.0 | 0.0 | 0.00 | 0.00 | 0.00 | 85 | 1013.3 |
| 20260509034640 | 33 | 277 | 0.0 | 0.0 | 0.00 | 0.00 | 0.00 | 85 | 1014.2 |
| 20260509034430 | 33 | 277 | 0.0 | 0.0 | 0.00 | 0.00 | 0.00 | 84 | 1013.1 |
| 20260509033037 | 33 | 277 | 0.0 | 0.0 | 0.00 | 0.00 | 0.00 | 83 | 1014.0 |
| 20260509032930 | 34 | 277 | 0.0 | 0.0 | 0.00 | 0.00 | 0.00 | 83 | 1012.9 |
| 20260509032430 | 34 | 277 | 0.0 | 0.0 | 0.00 | 0.00 | 0.00 | 82 | 1013.0 |
| 20260509031929 | 34 | 277 | 0.0 | 0.0 | 0.00 | 0.00 | 0.00 | 81 | 1012.9 |
| 20260509031630 | 34 | 277 | 0.0 | 0.0 | 0.00 | 0.00 | 0.00 | 81 | 1014.0 |
| 20260509031429 | 35 | 277 | 0.0 | 0.0 | 0.00 | 0.00 | 0.00 | 80 | 1012.9 |
| 20260509030931 | 35 | 277 | 0.0 | 0.0 | 0.00 | 0.00 | 0.00 | 80 | 1012.9 |
| 20260509030200 | 34 | 277 | 0.0 | 0.0 | 0.00 | 0.00 | 0.00 | 83 | 1013.9 |
| 20260509025431 | 35 | 277 | 0.0 | 0.0 | 0.00 | 0.00 | 0.00 | 83 | 1012.7 |
| 20260509024929 | 35 | 277 | 0.0 | 0.0 | 0.00 | 0.00 | 0.00 | 81 | 1012.7 |
| 20260509024628 | 35 | 277 | 0.0 | 0.0 | 0.00 | 0.00 | 0.00 | 82 | 1013.7 |
| 20260509024431 | 35 | 277 | 0.0 | 0.0 | 0.00 | 0.00 | 0.00 | 81 | 1012.7 |
| 20260509023930 | 35 | 277 | 0.0 | 0.0 | 0.00 | 0.00 | 0.00 | 80 | 1012.7 |
| 20260509023431 | 35 | 277 | 0.0 | 0.0 | 0.00 | 0.00 | 0.00 | 79 | 1012.7 |
| 20260509023152 | 35 | 277 | 0.0 | 0.0 | 0.00 | 0.00 | 0.00 | 80 | 1013.7 |
| 20260509022430 | 35 | 277 | 0.0 | 0.0 | 0.00 | 0.00 | 0.00 | 81 | 1012.7 |
| 20260509021930 | 36 | 277 | 0.0 | 0.0 | 0.00 | 0.00 | 0.00 | 80 | 1012.7 |
| 20260509020929 | 36 | 277 | 0.0 | 0.0 | 0.00 | 0.00 | 0.00 | 79 | 1012.4 |
| 20260509020429 | 37 | 277 | 0.0 | 0.0 | 0.00 | 0.00 | 0.00 | 78 | 1012.4 |
| 20260509020012 | 36 | 277 | 0.0 | 0.0 | 0.00 | 0.00 | 0.00 | 78 | 1013.2 |
| 20260509015930 | 37 | 277 | 0.0 | 0.0 | 0.00 | 0.00 | 0.00 | 77 | 1012.2 |
| 20260509015429 | 37 | 277 | 0.0 | 0.0 | 0.00 | 0.00 | 0.00 | 77 | 1012.2 |
| 20260509014930 | 37 | 277 | 0.0 | 0.0 | 0.00 | 0.00 | 0.00 | 76 | 1012.2 |
| 20260509014601 | 37 | 277 | 0.0 | 0.0 | 0.00 | 0.00 | 0.00 | 76 | 1013.1 |
| 20260509014429 | 37 | 277 | 0.0 | 0.0 | 0.00 | 0.00 | 0.00 | 76 | 1012.1 |
| 20260509013930 | 38 | 277 | 0.0 | 0.0 | 0.00 | 0.00 | 0.00 | 75 | 1012.0 |
| 20260509013429 | 38 | 277 | 0.0 | 0.0 | 0.00 | 0.00 | 0.00 | 75 | 1012.0 |
| 20260509012930 | 38 | 277 | 0.0 | 0.0 | 0.00 | 0.00 | 0.00 | 75 | 1011.9 |
| 20260509011930 | 39 | 277 | 0.0 | 0.0 | 0.00 | 0.00 | 0.00 | 73 | 1011.8 |
| 20260509011601 | 38 | 277 | 0.0 | 0.0 | 0.00 | 0.00 | 0.00 | 73 | 1012.7 |
| 20260509011430 | 39 | 277 | 0.0 | 0.0 | 0.00 | 0.00 | 0.00 | 74 | 1011.8 |
| 20260509010930 | 39 | 277 | 0.0 | 0.0 | 0.00 | 0.00 | 0.00 | 73 | 1011.8 |
| 20260509010429 | 40 | 277 | 0.0 | 0.0 | 0.00 | 0.00 | 0.00 | 72 | 1011.7 |
| 20260509010148 | 39 | 277 | 0.0 | 0.0 | 0.00 | 0.00 | 0.00 | 72 | 1012.5 |
| 20260509005928 | 40 | 277 | 0.0 | 0.0 | 0.00 | 0.00 | 0.00 | 70 | 1011.5 |
| 20260509004652 | 41 | 277 | 0.0 | 0.0 | 0.00 | 0.00 | 0.00 | 67 | 1012.3 |
| 20260509003919 | 42 | 277 | 0.0 | 0.0 | 0.00 | 0.00 | 0.00 | 68 | 1011.3 |
| 20260509003131 | 42 | 277 | 0.0 | 0.0 | 0.00 | 0.00 | 0.00 | 68 | 1012.2 |
| 20260509001514 | 43 | 277 | 0.0 | 1.0 | 0.00 | 0.00 | 0.00 | 55 | 1012.0 |
| 20260509001415 | 44 | 277 | 0.0 | 1.0 | 0.00 | 0.00 | 0.00 | 57 | 1011.2 |
| 20260509000914 | 44 | 277 | 0.0 | 1.0 | 0.00 | 0.00 | 0.00 | 55 | 1011.0 |
| 20260509000414 | 45 | 277 | 0.0 | 0.0 | 0.00 | 0.00 | 0.00 | 55 | 1011.0 |
| 20260509000116 | 45 | 277 | 0.0 | 0.0 | 0.00 | 0.00 | 0.00 | 52 | 1011.9 |
| 20260508235915 | 46 | 277 | 0.0 | 0.0 | 0.00 | 0.00 | 0.00 | 53 | 1011.0 |
| 20260508235414 | 46 | 277 | 0.0 | 0.0 | 0.00 | 0.00 | 0.00 | 50 | 1011.0 |
| 20260508234915 | 46 | 277 | 0.0 | 0.0 | 0.00 | 0.00 | 0.00 | 49 | 1010.8 |
| 20260508234640 | 46 | 277 | 0.0 | 0.0 | 0.00 | 0.00 | 0.00 | 51 | 1011.8 |